Regional Weather Roundup
Issued by NWS Cleveland, OH

Home | Current Version | Previous Version | Graphics & Text | Print | Product List | Glossary On
Versions: 1 2 3 4 5 6 7 8 9 10 11 12 13 14 15 16 17 18 19 20 21 22 23 24 25 26 27 28 29 30 31 32 33 34 35 36 37 38 39 40 41 42 43 44 45 46 47 48 49 50
000
ASUS41 KCLE 260910
RWRCLE
OHIO REGIONAL WEATHER ROUNDUP
NATIONAL WEATHER SERVICE CLEVELAND, OH
500 AM EDT TUE JUL 26 2016

NOTE: "FAIR" INDICATES FEW OR NO CLOUDS BELOW 12,000 FEET WITH NO
SIGNIFICANT WEATHER AND/OR OBSTRUCTIONS TO VISIBILITY.

OHZ001>008-015>018-024>027-034-035-043-044-261000-
   NORTHWEST OHIO

CITY           SKY/WX    TMP DP  RH WIND       PRES   REMARKS
DEFIANCE       CLEAR     66  61  84 CALM      30.03R
FINDLAY        CLEAR     68  62  81 CALM      30.02R
TOLEDO EXPRESS PTCLDY    67  65  93 CALM      30.02R
TOLEDO EXEC    PTCLDY    71  64  78 CALM      30.02R
LIMA           PTCLDY    68  65  90 CALM      30.03S
$$

OHZ009>014-019>023-028>033-038-089-261000-
   NORTHEAST OHIO

CITY           SKY/WX    TMP DP  RH WIND       PRES   REMARKS
CLE-HOPKINS    PTCLDY    75  66  73 N8        30.02R
CLE-LAKEFRONT  MOCLDY    76  70  82 N15       29.99R
CUY CO. ARPT   NOT AVBL
LORAIN-ELYRIA  CLEAR     69  66  90 N5        30.01S
ASHTABULA      PTCLDY    69  66  90 VRB3      30.01R
AKRON-CANTON   PTCLDY    70  66  87 NW6       30.01S
WOOSTER        CLOUDY    67  65  93 N6        30.02S
MANSFIELD      CLOUDY    69  65  86 NW6       30.03S
YOUNGSTOWN     CLOUDY    67  65  93 CALM      30.00R
$$

OHZ042-051>053-060>062-070>072-077>081-261000-
  SOUTHWEST OHIO

CITY           SKY/WX    TMP DP  RH WIND       PRES   REMARKS
CINC-COVINGTON CLOUDY    77  76  96 CALM      30.01F
CINC-LUNKEN    PTCLDY    76  76 100 CALM      30.00F
HAMILTON       CLOUDY    74  69  85 CALM      30.02S
DAYTON         CLOUDY    72  68  87 N5        30.04R
WRIGHT-PAT AFB MOCLDY    76  68  77 N5        30.02R
DAYTON GENERAL CLOUDY    76  66  71 N7        30.02R
WILMINGTON     MOCLDY    76  70  82 N6        30.02S
$$

OHZ036-037-039>041-045>050-054>059-063>069-073>076-082>088-261000-
  CENTRAL AND SOUTHEAST OHIO

CITY           SKY/WX    TMP DP  RH WIND       PRES   REMARKS
COLUMBUS       CLOUDY    75  69  81 N5        30.00S
OSU AIRPORT    MOCLDY    74  68  81 N8        30.01S
BOLTON FIELD   CLOUDY    74  69  85 N5        30.02R
RICKENBACK AFB CLOUDY    72  71  99 CALM      30.00R FOG
NEWARK         CLOUDY    71  69  93 CALM      30.00S
MARION         MOCLDY    71  66  84 NW3       30.03R
LANCASTER      PTCLDY    72  71  97 CALM      30.01S
ZANESVILLE     CLOUDY    72  68  87 CALM      30.00S
NEW PHILLY     MOCLDY    70  65  84 CALM      30.01R
$$




USA.gov is the U.S. government's official web portal to all federal, state and local government web resources and services.